Theta_e
302 302 302 303 304 306 306 306 307 305 302 303 303 301 302 301 300 299 299 299 299 299 300 301 302 302 302 302 303 303 302 301 301 301 301 300 299 298 297 297 297 297 296 296
303 302 303 305 305 306 305 306 305 304 302 303 302 302 301 300 299 299 299 298 298 298 299 300 301 301 301 301 301 301 301 300 300 300 300 298 297 296 296 295 296 296 296 295
305 306 304 306 305 305 305 305 304 306 303 301 300 302 301 299 297 297 298 298 298 298 298 299 299 299 300 300 300 300 300 300 299 298 297 296 296 295 295 295 295 295 295 295
306 305 305 305 306 305 308 303 303 303 304 305 300 302 301 300 298 297 298 297 297 297 297 297 297 298 298 298 298 298 298 297 297 296 295 295 295 294 294 294 294 294 294 293
307 303 305 305 305 305 307 302 302 302 302 298 302 298 302 298 299 297 296 297 297 297 297 297 297 297 297 296 296 296 296 295 295 295 295 294 294 294 294 293 293 293 292 293
303 301 303 304 301 303 301 303 302 301 301 300 300 302 302 299 297 297 295 297 297 297 297 297 297 297 297 296 296 296 295 295 295 294 294 293 293 293 292 292 292 292 292 292
304 304 302 301 303 302 303 306 307 307 303 304 298 300 302 298 295 294 294 296 297 297 297 297 297 296 296 295 295 295 295 294 294 293 293 292 291 291 291 291 291 292 292 293
307 306 303 302 304 304 304 307 310 310 301 300 299 300 303 293 290 294 296 296 296 297 296 296 296 295 296 295 294 294 294 294 293 293 292 291 291 291 291 291 291 292 292 293
307 309 300 301 301 303 304 306 301 298 292 295 296 297 297 295 291 291 295 296 295 296 295 295 295 295 295 294 294 294 294 293 293 292 291 291 291 291 292 292 292 292 292 293
305 304 303 300 300 300 302 300 306 300 301 300 295 294 299 295 292 290 288 295 295 296 295 294 294 294 294 294 294 294 295 294 293 292 292 292 292 292 292 292 292 292 293 293
301 303 302 301 301 302 301 302 300 301 296 296 295 298 288 290 291 290 289 295 296 296 295 295 294 294 294 295 295 294 294 294 294 293 293 293 292 291 292 292 292 293 293 293
302 302 300 297 293 296 297 297 299 301 296 289 291 297 281 281 285 290 293 295 295 295 295 294 295 295 295 294 294 294 294 294 294 294 293 293 292 292 292 292 293 293 293 294
301 302 301 300 300 298 300 297 294 294 295 292 297 298 284 283 282 290 294 295 295 294 294 293 293 293 294 295 294 293 293 294 294 294 293 293 292 293 293 293 293 293 294 294
302 301 295 301 300 297 298 298 297 299 294 292 295 293 292 289 287 287 293 295 294 295 294 294 293 292 293 293 295 294 293 293 294 294 294 293 293 293 293 293 293 293 294 294
301 302 298 294 292 294 291 299 299 300 294 303 293 296 295 293 290 290 295 294 294 294 294 293 293 292 293 293 293 294 293 294 294 293 293 293 293 293 293 293 293 293 293 294
297 298 298 296 292 289 294 294 293 298 291 291 285 291 290 283 288 289 293 294 293 293 292 292 291 292 292 292 293 293 294 293 294 294 293 293 293 293 293 292 293 293 293 292
298 295 300 300 291 294 297 290 293 294 293 299 297 298 286 283 278 288 292 293 294 291 291 291 291 291 292 293 293 293 293 293 292 293 293 292 292 293 292 292 291 291 292 291
293 292 294 292 289 297 291 275 285 295 292 292 286 283 283 286 290 292 292 293 291 290 290 290 290 289 289 289 290 290 290 290 292 291 291 292 292 292 292 292 292 291 290 289
291 294 290 293 287 291 292 282 287 292 292 290 294 280 280 284 288 288 289 289 290 290 289 288 287 287 287 287 287 288 288 288 288 289 290 289 290 292 292 291 291 291 291 291
294 292 292 280 290 291 287 284 284 284 294 280 280 282 280 286 288 285 289 288 288 288 287 286 286 286 286 286 286 287 287 287 287 287 288 288 289 289 289 290 291 291 291 290
295 295 292 283 283 287 284 287 287 296 292 283 283 286 287 287 287 290 289 288 286 286 286 286 286 285 286 286 286 286 286 286 287 287 287 288 288 288 288 289 289 289 289 290
294 292 290 286 288 292 287 289 293 291 288 288 288 287 290 291 289 288 287 286 286 286 286 285 285 285 285 285 285 285 285 285 285 286 286 287 287 287 287 288 288 288 289 289
292 292 292 292 293 288 290 291 291 293 293 292 290 290 290 289 288 287 286 286 286 286 286 286 285 285 285 285 285 285 285 285 285 285 285 286 286 286 286 286 287 287 286 286
289 289 291 293 291 288 292 292 293 294 292 291 290 289 288 288 287 287 286 286 286 285 285 285 285 285 285 284 284 284 284 284 284 284 285 285 285 285 285 284 284 285 284 284
291 290 292 292 292 291 294 294 293 293 292 291 289 289 288 288 287 286 285 285 284 284 284 284 284 284 284 284 284 284 284 284 284 284 284 284 284 284 284 283 283 283 283 282
290 292 292 293 293 294 294 295 294 292 292 290 290 288 287 286 286 285 284 284 284 283 283 283 283 283 283 283 283 283 283 283 283 283 283 283 283 283 283 283 283 281 281 281
Wind_Speed
7 4 11 16 13 3 4 4 5 3 1 2 6 6 13 11 5 4 3 3 4 4 6 7 6 3 8 15 19 23 23 21 20 18 19 20 22 22 24 24 23 22 22 22
3 15 10 6 7 5 4 4 5 3 1 1 5 12 12 6 4 5 3 1 1 1 3 5 6 4 2 7 13 17 18 18 18 20 21 23 23 22 21 21 22 23 23 22
10 4 12 13 6 8 5 8 5 4 0 2 5 8 5 2 3 5 4 3 2 1 1 0 0 1 3 6 9 12 15 17 19 21 23 22 21 21 21 22 23 23 23 21
8 3 5 8 9 8 7 8 5 4 3 4 2 5 5 3 5 5 7 6 4 3 1 0 2 5 8 10 13 15 18 20 20 20 20 21 23 23 23 23 22 22 21 19
9 5 8 5 5 10 2 5 6 3 3 4 1 2 5 1 6 7 8 9 7 4 4 5 7 8 10 11 13 15 17 18 20 21 22 23 23 23 23 22 21 19 19 17
2 4 2 4 4 5 11 7 6 4 2 2 5 5 5 5 6 4 4 11 7 6 5 6 7 9 10 12 13 15 16 18 20 21 21 20 20 20 20 19 18 17 17 16
4 3 4 3 9 3 3 8 2 1 2 6 1 1 8 4 5 4 9 12 7 5 5 7 9 10 11 13 14 15 17 18 19 20 19 19 18 18 17 16 16 16 15 15
10 5 10 6 5 8 6 5 5 7 4 3 2 7 6 4 2 6 9 10 6 4 6 8 10 11 12 13 13 15 16 16 17 18 18 18 17 16 16 16 16 16 17 18
7 6 3 2 3 5 6 6 4 6 2 3 3 6 7 4 1 1 6 7 6 3 3 5 6 7 8 10 12 13 14 15 16 16 17 17 17 17 17 17 17 17 18 18
6 3 3 3 4 1 4 5 4 0 3 4 4 5 6 5 7 4 3 9 7 3 2 3 4 5 7 9 11 12 12 13 14 16 16 16 16 16 17 16 16 16 15 14
5 3 4 6 6 8 4 3 1 4 2 5 1 6 6 7 9 10 8 11 7 4 3 3 4 5 6 8 10 11 10 11 11 13 13 13 14 15 16 14 13 14 13 11
4 4 4 3 3 0 2 6 4 4 5 1 3 6 1 5 6 13 13 8 7 5 4 5 6 8 8 8 10 11 10 9 10 11 11 12 12 13 12 12 11 11 11 13
7 4 5 2 1 3 5 4 3 4 3 6 5 5 2 1 1 8 8 7 6 7 6 5 7 9 10 9 11 11 11 10 10 11 11 11 11 11 12 11 11 12 12 12
14 2 4 6 3 4 5 7 8 4 3 5 7 3 3 6 6 6 10 8 9 9 10 8 7 8 10 10 11 11 11 12 11 12 12 11 12 12 11 12 13 13 13 13
4 4 3 3 4 3 4 7 13 13 5 8 3 9 5 11 11 13 13 7 9 10 11 12 12 11 10 11 11 13 12 12 12 12 13 13 13 12 12 13 15 15 14 12
3 3 2 2 2 3 1 4 4 7 2 6 2 8 7 2 6 9 18 13 11 9 8 9 12 13 14 15 14 12 15 13 12 13 13 15 16 15 14 15 16 16 14 12
3 5 2 2 2 1 6 9 11 6 5 12 11 10 7 3 4 11 14 13 9 3 5 7 10 13 16 17 18 16 14 16 15 13 14 16 18 18 18 19 20 18 17 17
5 4 2 2 3 1 5 1 1 10 4 10 2 4 5 4 7 9 11 10 6 4 6 10 12 14 15 16 16 16 16 15 16 15 14 16 18 20 21 22 23 22 22 22
1 4 3 4 3 5 2 3 5 6 7 11 16 4 2 9 7 4 11 8 6 6 9 11 12 14 15 15 14 14 14 14 14 14 15 17 19 21 22 23 24 25 27 28
3 5 3 3 4 7 6 2 5 3 4 2 3 7 8 11 2 4 15 9 7 7 8 9 10 12 13 13 13 12 12 12 13 14 14 15 17 19 21 23 24 25 27 29
2 2 4 2 2 7 5 3 8 4 5 1 3 13 16 5 4 9 10 8 7 4 6 7 9 10 11 11 11 12 13 13 13 14 14 15 16 17 18 20 21 23 24 27
4 4 3 2 2 7 8 6 5 3 3 3 4 10 13 7 8 7 6 4 3 3 5 6 8 9 10 11 12 12 13 13 14 14 14 14 14 16 17 18 18 19 21 22
2 4 3 6 4 2 13 1 4 5 4 5 6 10 10 10 9 8 6 4 2 2 4 6 8 8 10 11 12 13 13 14 14 14 14 14 14 14 15 17 17 16 17 18
3 3 1 2 2 4 8 15 7 8 3 5 6 10 11 11 11 9 6 3 1 3 4 6 8 9 10 11 13 14 15 15 16 15 14 14 14 13 13 14 15 16 15 15
2 4 2 4 5 3 13 14 14 14 11 9 9 10 11 11 11 8 6 3 2 3 5 7 9 11 11 12 13 14 15 15 15 15 15 15 15 15 14 13 14 14 13 13
6 5 4 5 4 2 3 5 11 18 16 13 12 14 13 11 10 8 6 5 4 5 7 8 10 12 12 13 13 14 15 16 17 16 16 17 17 16 16 16 11 10 13 12
Wind_Direction
193 171 201 200 202 118 143 177 209 215 167 233 235 261 270 294 293 308 330 357 7 17 23 12 0 298 230 211 213 218 223 229 238 249 263 275 281 283 283 282 282 283 285 287
129 233 212 184 180 192 169 185 224 271 159 264 323 276 258 246 221 211 228 253 7 64 54 45 43 47 140 202 206 214 223 232 244 258 270 277 281 280 277 277 280 283 284 284
194 195 196 184 164 187 213 210 183 218 24 38 331 283 261 227 188 198 205 207 206 201 229 259 86 140 169 189 204 219 233 247 259 267 273 276 276 277 278 279 280 280 280 280
244 208 144 189 201 158 214 185 148 140 111 243 359 280 290 217 228 213 206 202 178 147 129 237 253 248 245 243 244 250 256 262 267 270 272 275 278 279 279 278 277 276 276 276
211 194 168 182 186 167 197 113 110 95 93 32 211 42 261 83 245 223 214 201 185 196 271 268 268 263 257 255 255 257 261 266 271 274 277 278 279 279 278 276 274 273 272 272
323 308 179 168 68 123 142 90 64 60 80 298 204 175 252 194 213 171 173 191 195 254 261 260 261 265 266 266 266 267 269 272 275 277 279 279 279 279 278 275 272 268 267 267
136 191 307 152 89 109 122 144 141 196 180 230 238 130 259 240 217 199 169 178 206 232 262 274 271 268 266 267 268 273 276 276 275 276 279 280 280 278 277 274 270 266 264 265
177 216 168 186 166 177 183 171 166 193 203 221 103 229 249 220 152 127 142 165 191 237 277 288 283 273 267 269 273 277 280 277 276 277 278 278 278 277 275 272 269 267 267 267
175 217 101 120 117 146 169 203 120 101 46 50 206 280 288 144 9 131 168 171 183 212 301 313 296 282 272 274 279 280 281 277 276 276 275 276 277 277 272 268 268 268 268 266
173 120 170 121 114 43 206 158 134 131 171 232 274 276 242 212 216 210 225 194 190 201 284 311 305 291 284 287 286 283 280 280 278 276 276 277 275 273 271 271 270 267 264 259
131 119 127 144 205 163 153 189 150 123 129 169 193 256 213 209 192 185 199 191 189 205 236 292 321 320 308 299 292 285 283 281 279 279 281 280 277 276 276 269 267 266 265 271
181 120 153 176 237 187 96 186 169 149 217 150 142 271 268 250 193 170 179 184 202 225 262 295 307 311 314 313 300 290 288 286 286 285 281 279 278 276 275 275 274 281 283 274
177 153 118 79 354 175 204 183 141 118 96 198 146 256 359 24 307 191 189 193 213 232 251 286 307 299 300 307 305 303 296 292 291 288 286 284 282 279 276 279 289 289 280 266
156 121 171 178 172 134 179 186 186 154 140 166 220 269 288 244 227 222 215 224 224 231 243 267 300 312 306 304 302 305 304 298 289 288 288 287 281 280 281 283 282 275 269 261
120 148 122 71 72 50 162 186 188 206 186 192 247 208 224 208 210 215 207 239 230 239 249 262 276 295 315 314 305 299 300 299 291 278 279 279 276 280 281 275 270 265 258 255
91 116 149 97 43 60 235 203 192 230 234 278 159 265 225 184 191 212 222 214 235 247 258 275 278 283 299 309 311 306 297 289 288 286 267 266 270 269 266 265 263 260 257 255
115 140 139 141 341 309 295 198 189 194 213 217 226 242 156 221 225 210 202 215 233 233 305 297 292 290 295 302 307 308 302 296 287 284 284 268 264 265 264 262 261 262 260 255
121 108 71 138 21 296 249 213 164 233 244 230 303 223 186 178 172 178 192 206 202 231 275 298 301 301 302 304 306 308 304 302 297 292 283 278 276 272 267 265 266 266 264 261
48 116 90 145 193 302 327 246 158 163 278 215 226 175 175 140 131 216 198 204 223 259 292 303 308 313 318 319 318 313 308 305 302 297 293 288 282 278 277 275 271 268 266 264
54 73 104 100 153 209 241 253 196 188 295 272 193 162 162 154 133 249 194 218 245 274 295 307 310 317 323 324 318 317 314 312 310 307 303 297 291 287 285 282 278 274 270 268
104 82 145 163 219 285 238 187 170 108 241 255 189 181 160 175 165 148 174 207 243 280 303 317 319 321 324 326 325 322 321 320 321 319 314 309 304 300 296 291 289 285 279 275
159 146 180 96 79 280 162 121 172 210 134 121 105 161 171 166 160 168 194 209 243 290 311 317 322 322 327 329 330 329 328 331 331 329 325 321 315 310 307 303 298 292 290 287
256 186 187 192 216 272 190 224 194 152 162 181 168 162 177 179 181 177 180 186 214 328 330 334 332 334 334 333 334 336 338 339 340 336 332 331 329 324 319 315 311 305 300 296
246 182 192 44 278 238 237 231 230 209 199 187 184 178 173 173 169 172 174 153 46 350 348 346 344 344 341 339 340 340 342 343 343 342 342 342 339 335 330 326 321 317 310 305
185 136 190 274 269 289 261 241 240 222 215 197 184 182 179 172 168 165 145 127 84 32 18 12 7 0 353 347 344 343 344 346 347 348 347 347 348 346 345 344 336 326 321 312
180 186 174 227 219 157 283 282 236 216 208 201 194 181 177 174 163 154 147 129 101 69 46 26 13 5 357 352 347 345 345 345 346 347 346 346 347 347 348 346 356 342 328 321